[[{"header":{"parameterUnit":"m.s-1","parameterCategory":1,"la1":30.2991,"la2":30.254,"lo1":-89.0895,"lo2":-89.0444,"dy":0.0017,"dx":0.0017,"nx":28,"ny":28,"refTime":"2024-08-04T03:00:00:Z","depth":0,"parameterNumber":2,"parameterNumberName":"U-component_of_WINDS"},"data":[0,0,0,0,0,0,0,0,0,0,0,0,0,0,0,0,0,0,0,0,0,0,0,0,0,0,0,0,0,0,0,0,0,0,0,0,0,0,0,0,0,0,0,0,0,0,0,0,0,0,0,0,0,0,0,0,0,0,-4.32,-4.32,0,-4.3257,-4.3258,-4.3259,-4.318,-4.3177,-4.3174,-4.3172,-4.3234,-4.3238,-4.3242,0,0,0,0,0,0,0,0,0,0,0,0,0,-4.3026,-4.303,-4.32,-4.3201,-4.3201,-4.3257,-4.3258,-4.3259,-4.318,-4.3177,-4.3174,-4.317,-4.3232,-4.3237,-4.3242,0,0,0,0,0,0,0,0,0,0,0,0,0,-4.3094,-4.3031,-4.32,-4.3169,-4.3167,-4.3257,-4.3258,-4.3259,-4.3181,-4.3177,-4.3173,-4.3169,-4.3231,-4.3237,-4.3243,-4.3367,0,0,-4.3263,-4.3265,0,0,0,0,0,0,0,0,-4.3091,-4.3101,-4.3173,-4.3171,-4.3169,-4.3207,-4.3219,-4.3296,-4.3182,-4.3176,-4.3172,-4.3167,-4.3228,-4.3235,-4.3255,-4.337,-4.3373,-4.3263,-4.3267,-4.327,-4.3272,0,0,0,0,0,0,0,-4.3086,-4.3098,-4.3223,-4.3174,-4.3172,-4.3153,-4.3158,-4.3233,-4.3225,-4.3176,-4.317,-4.3178,-4.3227,-4.3249,-4.3256,-4.3374,-4.3263,-4.3269,-4.3273,-4.3275,-4.3597,-4.3601,0,0,0,0,0,0,-4.3084,-4.3095,-4.3221,-4.3224,-4.3118,-4.316,-4.3166,-4.3199,-4.3224,-4.3224,-4.3182,-4.3174,-4.324,-4.3248,-4.3258,-4.3406,-4.327,-4.3276,-4.328,-4.3592,-4.3598,-4.3603,0,0,0,0,0,0,-4.3081,-4.3096,-4.3218,-4.3158,-4.3172,-4.3167,-4.3206,-4.3203,-4.3225,-4.3228,-4.3227,-4.3206,-4.3237,-4.3249,-4.3341,-4.3407,-4.3279,-4.3285,-4.3587,-4.3594,-4.3601,-4.3704,0,0,0,0,0,0,-4.3076,-4.3096,-4.3142,-4.316,-4.3176,-4.33,-4.321,-4.3207,-4.3236,-4.3226,-4.3251,-4.3251,-4.3235,-4.3332,-4.3348,-4.3414,-4.329,-4.3581,-4.359,-4.3598,-4.3695,-4.3714,-4.373,0,0,0,0,0,-4.307,-4.3169,-4.3144,-4.316,-4.3233,-4.3304,-4.3313,-4.3292,-4.3241,-4.3288,-4.3291,-4.325,-4.3398,-4.3342,-4.3359,-4.3428,-4.3577,-4.3587,-4.3598,-4.3687,-4.371,-4.373,0,0,0,0,0,0,-4.3159,-4.317,-4.3144,-4.325,-4.3277,-4.329,-4.3349,-4.3317,-4.3359,-4.3348,-4.3321,-4.3327,-4.3427,-4.3436,-4.3374,-4.3551,-4.3479,-4.3493,-4.3541,-4.3563,-4.3581,-4.3577,-4.3295,0,0,0,0,0,-4.3191,-4.3247,-4.3254,-4.3347,-4.3362,-4.3354,-4.3384,-4.3365,-4.3392,-4.3403,-4.3412,-4.344,-4.3493,-4.3529,-4.3577,-4.3696,-4.3701,-4.3752,-4.377,-4.3785,-4.3798,-4.3863,-4.3887,-4.3638,-4.3638,-4.3638,0,0,-4.3258,-4.3271,-4.3307,-4.3366,-4.3384,-4.3444,-4.3363,-4.3429,-4.3474,-4.3413,-4.3501,-4.3509,-4.3539,-4.3646,-4.3693,-4.3657,-4.3868,-4.3798,-4.381,-4.3815,-4.3877,-4.39,-4.3921,-4.3645,-4.3644,-4.3643,0,0,-4.341,-4.3424,-4.3505,-4.3525,-4.3554,-4.3548,-4.3568,-4.3587,-4.359,-4.3677,-4.3634,-4.3687,-4.3778,-4.3802,-4.3826,-4.399,-4.3954,-4.4007,-4.4099,-4.4164,-4.4184,-4.4201,-4.4261,-4.4283,-4.402,-4.402,-4.402,0,-4.3489,-4.3576,-4.355,-4.362,-4.3648,-4.3595,-4.3678,-4.3699,-4.3743,-4.3764,-4.3723,-4.3838,-4.3854,-4.3967,-4.4007,-4.4028,-4.4051,-4.4004,-4.4183,-4.42,-4.4215,-4.4273,-4.4295,-4.4026,-4.4025,-4.4025,-4.4024,0,-4.3673,-4.3734,-4.3796,-4.3839,-4.3874,-4.395,-4.3938,-4.3976,-4.3956,-4.3955,-4.4047,-4.4065,-4.4117,-4.4142,-4.4122,-4.4253,-4.423,-4.4187,-4.4113,-4.4246,-4.4299,-4.4321,-4.4035,-4.4033,-4.4031,-4.4029,0,0,-4.3881,-4.3911,-4.3934,-4.3954,-4.3983,-4.4031,-4.4105,-4.4156,-4.4191,-4.4223,-4.4286,-4.4366,-4.4326,-4.4354,-4.4336,-4.4393,-4.4524,-4.4342,-4.4343,-4.4377,-4.4672,-4.4705,-4.4731,-4.4501,-4.4505,-4.4508,-4.467,0,-4.4034,-4.4162,-4.4142,-4.4266,-4.4324,-4.4276,-4.4341,-4.4367,-4.4369,-4.4419,-4.4421,-4.4479,-4.4421,-4.4438,-4.4492,-4.4497,-4.4583,-4.4485,-4.4561,-4.4564,-4.4555,-4.4758,-4.4793,-4.4945,-4.469,-4.4694,-4.4696,0,-4.4229,-4.4269,-4.4399,-4.442,-4.4444,-4.4503,-4.4549,-4.4597,-4.4627,-4.4624,-4.4656,-4.4629,-4.4706,-4.4632,-4.4738,-4.4672,-4.4702,-4.471,-4.4715,-4.4722,-4.4638,-4.4772,-4.4993,-4.5016,-4.4729,-4.4726,-4.4724,0,-4.437,-4.4456,-4.4545,-4.4563,-4.4591,-4.4634,-4.4647,-4.4672,-4.4705,-4.4746,-4.4768,-4.4817,-4.4845,-4.4885,-4.4874,-4.482,-4.4984,-4.4908,-4.4985,-4.4986,-4.5022,-4.502,-4.5252,-4.504,-4.504,-4.504,-4.5039,0,-4.4543,-4.4624,-4.4609,-4.4664,-4.4755,-4.4733,-4.4824,-4.4832,-4.4855,-4.4912,-4.4874,-4.4929,-4.4909,-4.4964,-4.4955,-4.5046,-4.5059,-4.506,-4.5057,-4.5064,-4.5064,-4.5084,-4.5074,-4.5046,-4.5044,-4.5043,-4.5042,0,-4.4715,-4.4707,-4.4802,-4.4821,-4.4828,-4.4894,-4.4911,-4.4964,-4.4963,-4.5036,-4.5052,-4.5052,-4.5114,-4.5106,-4.5176,-4.517,-4.5284,-4.5267,-4.5274,-4.527,-4.5349,-4.5342,-4.5603,-4.5636,-4.5402,-4.5404,-4.5406,0,-4.4826,-4.4888,-4.4914,-4.4949,-4.4966,-4.5023,-4.5056,-4.5038,-4.5075,-4.5114,-4.5163,-4.5222,-4.5267,-4.537,-4.5377,-4.543,-4.5416,-4.5504,-4.5424,-4.543,-4.5419,-4.5416,-4.5423,-4.5519,-4.5522,-4.5524,-4.5526,0,-4.5024,-4.5018,-4.5067,-4.5116,-4.5157,-4.5195,-4.5229,-4.5261,-4.5246,-4.5289,-4.5352,-4.5388,-4.546,-4.5519,-4.5571,-4.5586,-4.5555,-4.5551,-4.5572,-4.558,-4.5582,-4.5584,-4.5318,-4.5545,-4.5543,-4.5542,-4.5541,-4.554,-4.517,-4.5224,-4.5251,-4.5308,-4.5332,-4.5365,-4.5416,-4.5422,-4.5474,-4.553,-4.5517,-4.5589,-4.5619,-4.5685,-4.5706,-4.5763,-4.5731,-4.5762,-4.5769,-4.5777,-4.5787,-4.5573,-4.5772,-4.5772,-4.5771,-4.5771,-4.577,0,-4.5368,-4.5383,-4.5436,-4.5485,-4.5531,-4.5496,-4.5533,-4.5574,-4.5637,-4.5668,-4.5714,-4.5788,-4.5846,-4.5859,-4.5915,-4.5959,-4.5946,-4.5974,-4.5971,-4.5976,-4.5812,-4.5789,-4.5984,-4.5984,-4.5984,-4.5984,-4.5984,-4.5984,-4.5476,-4.5565,-4.5563,-4.5665,-4.568,-4.575,-4.5774,-4.5806,-4.583,-4.5914,-4.5962,-4.597,-4.5994,-4.6052,-4.6105,-4.6107,-4.613,-4.6165,-4.6162,-4.6008,-4.5987,-4.5967,-4.5945,-4.617,-4.617,-4.6321,-4.6323,-4.6324]},{"header":{"parameterUnit":"m.s-1","parameterCategory":1,"la1":30.2991,"la2":30.254,"lo1":-89.0895,"lo2":-89.0444,"dy":0.0017,"dx":0.0017,"nx":28,"ny":28,"refTime":"2024-08-04T03:00:00:Z","depth":0,"parameterNumber":3,"parameterNumberName":"V-component_of_WINDS"},"data":[0,0,0,0,0,0,0,0,0,0,0,0,0,0,0,0,0,0,0,0,0,0,0,0,0,0,0,0,0,0,0,0,0,0,0,0,0,0,0,0,0,0,0,0,0,0,0,0,0,0,0,0,0,0,0,0,0,0,-2.2466,-2.2466,0,-2.2446,-2.2445,-2.2445,-2.2401,-2.2401,-2.24,-2.2399,-2.2379,-2.238,-2.238,0,0,0,0,0,0,0,0,0,0,0,0,0,-2.2469,-2.247,-2.2466,-2.2466,-2.2466,-2.2446,-2.2445,-2.2445,-2.2402,-2.2401,-2.24,-2.2398,-2.2379,-2.2379,-2.238,0,0,0,0,0,0,0,0,0,0,0,0,0,-2.246,-2.247,-2.2466,-2.2442,-2.2439,-2.2446,-2.2445,-2.2445,-2.2402,-2.2401,-2.2399,-2.2398,-2.2379,-2.2379,-2.238,-2.2409,0,0,-2.2381,-2.2381,0,0,0,0,0,0,0,0,-2.2461,-2.246,-2.2445,-2.2443,-2.2441,-2.2425,-2.2439,-2.2433,-2.2402,-2.2416,-2.2399,-2.2397,-2.2396,-2.2395,-2.2394,-2.2408,-2.2407,-2.2381,-2.2382,-2.2382,-2.2382,0,0,0,0,0,0,0,-2.2462,-2.2461,-2.2458,-2.2445,-2.2442,-2.2432,-2.2429,-2.2438,-2.2414,-2.2415,-2.2412,-2.241,-2.2394,-2.2393,-2.2393,-2.2407,-2.2381,-2.2382,-2.2382,-2.2382,-2.2445,-2.2446,0,0,0,0,0,0,-2.2466,-2.2462,-2.2459,-2.2457,-2.2448,-2.2433,-2.243,-2.2431,-2.2413,-2.2409,-2.2411,-2.2408,-2.2393,-2.2392,-2.2392,-2.2425,-2.2382,-2.2382,-2.2382,-2.2444,-2.2445,-2.2447,0,0,0,0,0,0,-2.2466,-2.2466,-2.246,-2.2459,-2.2457,-2.2434,-2.2436,-2.2431,-2.2431,-2.241,-2.2406,-2.2415,-2.2392,-2.2391,-2.2405,-2.2424,-2.2382,-2.2383,-2.2442,-2.2444,-2.2446,-2.2492,0,0,0,0,0,0,-2.2466,-2.2466,-2.2477,-2.2459,-2.2457,-2.2473,-2.2437,-2.2432,-2.2431,-2.2427,-2.2413,-2.2409,-2.2391,-2.2405,-2.2406,-2.2424,-2.2383,-2.244,-2.2443,-2.2445,-2.2489,-2.2496,-2.2502,0,0,0,0,0,-2.2466,-2.2491,-2.2478,-2.2477,-2.247,-2.2474,-2.2473,-2.2451,-2.2433,-2.2444,-2.2431,-2.2409,-2.2422,-2.2406,-2.2407,-2.2426,-2.2439,-2.2442,-2.2445,-2.2486,-2.2495,-2.2501,0,0,0,0,0,0,-2.2512,-2.2488,-2.2473,-2.2493,-2.2486,-2.2467,-2.248,-2.2461,-2.2459,-2.2455,-2.2429,-2.2426,-2.2444,-2.2436,-2.2419,-2.2453,-2.2427,-2.243,-2.2458,-2.2466,-2.2472,-2.2474,-2.2383,0,0,0,0,0,-2.2524,-2.2529,-2.2508,-2.2527,-2.2524,-2.2503,-2.2504,-2.2488,-2.2479,-2.2476,-2.2464,-2.2458,-2.246,-2.2462,-2.2463,-2.2487,-2.2484,-2.2501,-2.2507,-2.2512,-2.2516,-2.2529,-2.2536,-2.2457,-2.2457,-2.2457,0,0,-2.255,-2.2537,-2.2542,-2.2536,-2.2529,-2.2535,-2.2501,-2.2508,-2.2513,-2.2478,-2.249,-2.2481,-2.2472,-2.2491,-2.2499,-2.2485,-2.2537,-2.2516,-2.2521,-2.2521,-2.2533,-2.254,-2.2547,-2.2459,-2.2459,-2.2458,0,0,-2.2599,-2.259,-2.2605,-2.2598,-2.2587,-2.2573,-2.2577,-2.256,-2.2553,-2.2565,-2.2539,-2.2544,-2.2548,-2.2543,-2.2541,-2.2588,-2.2569,-2.2589,-2.2622,-2.2635,-2.2641,-2.2647,-2.2664,-2.2671,-2.2592,-2.2593,-2.2593,0,-2.2632,-2.264,-2.2615,-2.2625,-2.2623,-2.2591,-2.2607,-2.2601,-2.2592,-2.2592,-2.2576,-2.2581,-2.2573,-2.2591,-2.2602,-2.2601,-2.2605,-2.2591,-2.2642,-2.2647,-2.2652,-2.2669,-2.2675,-2.2595,-2.2595,-2.2595,-2.2594,0,-2.2682,-2.2687,-2.2701,-2.2692,-2.2692,-2.2704,-2.2682,-2.2685,-2.2669,-2.2656,-2.2669,-2.2657,-2.2656,-2.2658,-2.2643,-2.2674,-2.2666,-2.2647,-2.262,-2.2663,-2.2678,-2.2684,-2.2599,-2.2598,-2.2597,-2.2597,0,0,-2.276,-2.2737,-2.2742,-2.2738,-2.2724,-2.2728,-2.2739,-2.2737,-2.274,-2.2734,-2.2744,-2.2748,-2.273,-2.2727,-2.2711,-2.2722,-2.2761,-2.2701,-2.2701,-2.2714,-2.2796,-2.2811,-2.2819,-2.2748,-2.2749,-2.275,-2.2797,0,-2.2807,-2.2824,-2.2802,-2.2825,-2.283,-2.28,-2.2809,-2.2802,-2.279,-2.2793,-2.278,-2.2784,-2.2759,-2.2758,-2.2767,-2.2754,-2.2778,-2.2751,-2.2757,-2.2757,-2.2761,-2.2827,-2.2843,-2.2888,-2.2803,-2.2804,-2.2804,0,-2.2864,-2.2861,-2.2884,-2.2868,-2.2869,-2.2878,-2.2875,-2.2878,-2.2869,-2.2859,-2.2857,-2.2837,-2.2847,-2.282,-2.2834,-2.2817,-2.2818,-2.2812,-2.2813,-2.2814,-2.2784,-2.283,-2.2902,-2.2909,-2.2813,-2.2813,-2.2812,0,-2.292,-2.2921,-2.2935,-2.2932,-2.2914,-2.2921,-2.2914,-2.2904,-2.2904,-2.2901,-2.2901,-2.2899,-2.2898,-2.2898,-2.2878,-2.286,-2.2895,-2.2866,-2.2888,-2.2889,-2.2898,-2.2898,-2.2972,-2.2897,-2.2897,-2.2897,-2.2897,0,-2.2976,-2.2991,-2.296,-2.2969,-2.2985,-2.296,-2.2977,-2.2967,-2.2958,-2.2964,-2.2938,-2.2944,-2.2917,-2.2922,-2.2906,-2.2921,-2.292,-2.2914,-2.291,-2.2917,-2.2918,-2.2918,-2.2915,-2.2899,-2.2898,-2.2898,-2.2898,0,-2.3041,-2.3021,-2.3034,-2.3016,-2.3011,-2.3024,-2.3009,-2.3016,-2.3002,-2.3011,-2.3012,-2.299,-2.2994,-2.2974,-2.2974,-2.2963,-2.2986,-2.2976,-2.2989,-2.2986,-2.301,-2.3008,-2.3087,-2.3097,-2.3015,-2.3016,-2.3017,0,-2.3078,-2.3089,-2.3072,-2.3074,-2.3068,-2.3072,-2.3072,-2.3047,-2.3048,-2.3039,-2.3048,-2.3049,-2.3049,-2.3056,-2.304,-2.304,-2.3031,-2.3058,-2.3031,-2.3037,-2.3032,-2.3032,-2.3034,-2.3065,-2.3066,-2.3067,-2.3067,0,-2.3147,-2.3136,-2.3137,-2.3134,-2.3134,-2.3131,-2.3126,-2.313,-2.3103,-2.3106,-2.3109,-2.3108,-2.3108,-2.311,-2.3107,-2.31,-2.308,-2.3076,-2.3081,-2.3089,-2.3096,-2.3094,-2.3006,-2.3074,-2.3074,-2.3073,-2.3073,-2.3073,-2.32,-2.3208,-2.3197,-2.3199,-2.3192,-2.3188,-2.3195,-2.3181,-2.3183,-2.3181,-2.3166,-2.3172,-2.3163,-2.3156,-2.3151,-2.3156,-2.3143,-2.315,-2.3152,-2.3154,-2.3159,-2.3095,-2.3155,-2.3155,-2.3154,-2.3154,-2.3154,0,-2.3267,-2.3258,-2.326,-2.3254,-2.3255,-2.3235,-2.3229,-2.3231,-2.3237,-2.3229,-2.323,-2.3233,-2.3235,-2.3219,-2.3219,-2.3226,-2.3217,-2.3227,-2.3226,-2.3225,-2.317,-2.3166,-2.3234,-2.3234,-2.3234,-2.3234,-2.3234,-2.3234,-2.3303,-2.3316,-2.3304,-2.3315,-2.3306,-2.3311,-2.3309,-2.3305,-2.3299,-2.3304,-2.3305,-2.3295,-2.3285,-2.3284,-2.3284,-2.328,-2.3281,-2.3295,-2.3287,-2.3237,-2.3229,-2.3222,-2.3218,-2.3295,-2.3295,-2.3342,-2.3342,-2.3342]}]]